This is the latest recevied weather packets stored in our database for station/object K4DNM. If no packets are shown the sender has not sent any weather packets the latest 10 day(s).
| Time | Temp. | Humidity | Pressure | Rain* | Wind** | Luminosity | Snow |
|---|---|---|---|---|---|---|---|
| 1778084314 | 23.89° C | 59% | 1013.6 hPa | 0 mm | - | 258 W/m² | - |
| 1778083984 | 23.89° C | 59% | 1013.5 hPa | 0 mm | - | 333 W/m² | - |
| 1778083684 | 23.89° C | 60% | 1013.5 hPa | 0 mm | - | 380 W/m² | - |
| 1778083383 | 23.89° C | 61% | 1013.7 hPa | 0 mm | - | 400 W/m² | - |
| 1778083092 | 23.33° C | 62% | 1013.4 hPa | 0 mm | - | 463 W/m² | - |
| 1778082777 | 22.78° C | 63% | 1013.4 hPa | 0 mm | - | 338 W/m² | - |
| 1778082476 | 22.78° C | 62% | 1013.4 hPa | 0 mm | - | 256 W/m² | - |
| 1778082236 | 22.78° C | 62% | 1013.5 hPa | 0 mm | - | 256 W/m² | - |
| 1778081876 | 22.78° C | 63% | 1013.3 hPa | 0 mm | - | 262 W/m² | - |
| 1778081578 | 22.78° C | 63% | 1013.5 hPa | 0 mm | - | 267 W/m² | - |
| 1778081277 | 22.78° C | 62% | 1013.6 hPa | 0 mm | - | 209 W/m² | - |
| 1778080977 | 22.78° C | 63% | 1013.5 hPa | 0 mm | - | 184 W/m² | - |
| 1778080678 | 22.78° C | 64% | 1013.8 hPa | 0 mm | - | 191 W/m² | - |
| 1778080377 | 22.78° C | 62% | 1013.7 hPa | 0 mm | - | 231 W/m² | - |
| 1778080077 | 23.33° C | 62% | 1013.7 hPa | 0 mm | - | 279 W/m² | - |
| 1778079772 | 22.78° C | 63% | 1013.8 hPa | 0 mm | - | 384 W/m² | - |
| 1778079472 | 22.78° C | 63% | 1013.9 hPa | 0 mm | - | 429 W/m² | - |
| 1778079169 | 22.78° C | 63% | 1013.9 hPa | 0 mm | - | 448 W/m² | - |
| 1778078930 | 22.22° C | 64% | 1014.1 hPa | 0 mm | - | 464 W/m² | - |
| 1778078565 | 21.67° C | 65% | 1014.1 hPa | 0 mm | - | 335 W/m² | - |
| 1778078265 | 21.67° C | 65% | 1014.2 hPa | 0 mm | - | 273 W/m² | - |
| 1778077965 | 21.67° C | 66% | 1014.2 hPa | 0 mm | - | 221 W/m² | - |
| 1778077665 | 21.67° C | 66% | 1014.1 hPa | 0 mm | - | 200 W/m² | - |
| 1778077425 | 21.67° C | 66% | 1014.1 hPa | 0 mm | - | 200 W/m² | - |
| 1778077066 | 21.67° C | 66% | 1014.1 hPa | 0 mm | - | 170 W/m² | - |
* Rain latest hour (hover to see other rain measurements)
** Current wind speed in m/s (hover to see current wind gust speed)